EC2UT-13 Weather Reports


time (UTC)temp
C
wind
direction
speed
KPH
gust
KPH
rain 1hr
cm
rain 24hr
cm
rain mn
cm
humidity
%
barometer
mb
20260508054517 10 0.0 0.0 0.00 0.15 0.00 67 1013.6
20260508053536 10 0.0 0.0 0.00 0.15 0.00 69 1013.4
20260508052516 10 45 1.6 6.4 0.00 0.15 0.00 69 1013.1
20260508051516 10 45 3.2 6.4 0.00 0.15 0.00 69 1012.8
20260508050516 10 23 4.8 8.0 0.00 0.15 0.00 69 1012.6
20260508045537 10 45 6.4 9.7 0.00 0.15 0.00 69 1012.7
20260508044516 10 45 9.7 11.3 0.00 0.15 0.00 69 1012.4
20260508043517 10 45 6.4 8.0 0.00 0.15 0.00 69 1012.7
20260508042516 10 68 3.2 8.0 0.00 0.15 0.00 69 1013.0
20260508041516 10 45 4.8 8.0 0.00 0.15 0.00 69 1012.9
20260508040516 10 45 4.8 9.7 0.00 0.15 0.00 69 1013.1
20260508035516 10 68 3.2 6.4 0.00 0.15 0.00 69 1013.1
20260508034516 10 45 1.6 6.4 0.00 0.15 0.00 69 1013.4
20260508033536 10 0.0 4.8 0.00 0.15 0.00 69 1013.3
20260508032516 10 45 3.2 6.4 0.00 0.15 0.00 69 1013.4
20260508031516 10 45 3.2 6.4 0.00 0.15 0.00 68 1013.5
20260508030516 11 0.0 3.2 0.00 0.15 0.00 69 1013.5
20260508025536 11 45 3.2 6.4 0.00 0.15 0.00 69 1013.5
20260508024516 11 68 1.6 4.8 0.00 0.15 0.00 69 1013.6
20260508023516 11 68 3.2 6.4 0.00 0.15 0.00 70 1013.6
20260508022516 11 90 3.2 6.4 0.00 0.15 0.00 70 1013.8
20260508021536 11 90 3.2 9.7 0.00 0.15 0.00 70 1013.8
20260508020536 11 68 6.4 9.7 0.00 0.15 0.00 68 1013.8
20260508015516 11 45 6.4 9.7 0.00 0.15 0.00 68 1013.9
20260508014536 11 68 6.4 11.3 0.00 0.15 0.00 68 1013.9
20260508013516 12 90 1.6 4.8 0.00 0.15 0.00 67 1013.8
20260508012515 12 90 3.2 4.8 0.00 0.15 0.00 66 1014.0
20260508011518 12 113 1.6 6.4 0.00 0.15 0.00 66 1014.1
20260508010518 12 113 1.6 6.4 0.00 0.15 0.00 66 1014.2
20260508005518 12 90 1.6 4.8 0.00 0.15 0.00 66 1014.3
20260508004518 12 90 1.6 3.2 0.00 0.15 0.00 65 1014.3
20260508003518 12 90 3.2 9.7 0.00 0.15 0.00 64 1014.3
20260508002517 12 0.0 3.2 0.00 0.15 0.00 64 1014.3
20260508001518 12 0.0 1.6 0.00 0.15 0.00 64 1014.2
20260508000518 12 0.0 0.0 0.00 0.15 0.00 64 1014.2
20260507235538 12 0.0 0.0 0.00 0.15 0.15 63 1014.3
20260507234516 12 0.0 0.0 0.00 0.15 0.15 64 1014.3
20260507233517 12 158 1.6 4.8 0.00 0.15 0.15 64 1014.2
20260507232557 12 158 1.6 6.4 0.00 0.15 0.15 64 1014.2
20260507231518 12 158 1.6 4.8 0.00 0.15 0.15 64 1014.3
20260507230517 12 180 1.6 8.0 0.00 0.15 0.15 64 1014.2
20260507225518 12 0.0 3.2 0.00 0.15 0.15 64 1014.0
20260507224518 12 0.0 3.2 0.00 0.15 0.15 63 1014.1
20260507223518 12 0.0 0.0 0.00 0.15 0.15 62 1014.1
20260507222517 12 0.0 0.0 0.00 0.15 0.15 62 1013.9
20260507221518 12 0.0 3.2 0.00 0.15 0.15 62 1013.9
20260507220537 12 45 4.8 8.0 0.00 0.15 0.15 62 1013.8
20260507215517 12 45 8.0 14.5 0.00 0.15 0.15 63 1013.9
20260507214518 13 68 1.6 4.8 0.00 0.15 0.15 63 1013.8
20260507213518 13 68 6.4 11.3 0.00 0.15 0.15 62 1013.8
20260507212517 13 68 6.4 11.3 0.00 0.15 0.15 61 1013.6
20260507211558 13 45 8.0 11.3 0.00 0.15 0.15 60 1013.6
20260507210518 14 45 4.8 8.0 0.00 0.15 0.15 57 1013.3
20260507205518 14 315 3.2 6.4 0.00 0.15 0.15 56 1013.2
20260507204518 14 0.0 4.8 0.00 0.15 0.15 56 1013.0
20260507203517 14 0.0 0.0 0.00 0.15 0.15 56 1013.0
20260507202537 14 158 1.6 3.2 0.00 0.15 0.15 55 1013.0
20260507201517 14 180 1.6 6.4 0.00 0.15 0.15 55 1012.8
20260507200517 14 158 4.8 8.0 0.00 0.15 0.15 56 1012.8
20260507195517 14 0.0 4.8 0.00 0.15 0.15 58 1012.7
20260507193517 13 180 1.6 6.4 0.00 0.15 0.15 60 1012.9
20260507192538 13 180 1.6 4.8 0.03 0.15 0.15 60 1012.7
20260507191517 13 180 1.6 6.4 0.03 0.15 0.15 60 1012.9
20260507190517 13 180 1.6 8.0 0.03 0.15 0.15 60 1012.8
20260507185517 13 0.0 3.2 0.05 0.15 0.15 60 1012.8
20260507184517 13 135 3.2 6.4 0.05 0.15 0.15 60 1012.8
20260507183517 13 135 3.2 11.3 0.05 0.15 0.15 60 1012.7
20260507182518 13 0.0 4.8 0.03 0.13 0.13 61 1012.8
20260507181538 13 0.0 6.4 0.03 0.13 0.13 61 1012.8
20260507180517 13 90 3.2 11.3 0.03 0.13 0.13 60 1012.7
20260507175517 13 68 4.8 12.9 0.00 0.10 0.10 60 1012.7
20260507174537 13 90 4.8 14.5 0.00 0.10 0.10 59 1012.5
20260507173517 13 113 4.8 9.7 0.00 0.10 0.10 60 1012.7
20260507172517 13 68 8.0 14.5 0.03 0.10 0.10 59 1012.4
20260507171517 14 68 6.4 14.5 0.03 0.10 0.10 59 1012.5
20260507170517 14 68 8.0 17.7 0.03 0.10 0.10 59 1012.5
20260507165517 14 113 6.4 12.9 0.05 0.10 0.10 58 1012.6
20260507164517 14 180 4.8 12.9 0.05 0.10 0.10 58 1012.4
20260507163517 14 180 11.3 20.9 0.08 0.10 0.10 57 1012.2
20260507162517 15 135 9.7 19.3 0.05 0.08 0.08 57 1012.2
20260507161517 15 180 9.7 17.7 0.05 0.08 0.08 55 1012.2
20260507160557 15 180 9.7 16.1 0.05 0.08 0.08 55 1012.1
20260507155518 15 180 4.8 12.9 0.05 0.05 0.05 53 1012.0
20260507154517 16 158 3.2 8.0 0.05 0.05 0.03 54 1011.8
20260507153517 16 315 6.4 11.3 0.03 0.03 0.03 54 1011.3
20260507152517 16 270 9.7 20.9 0.03 0.03 0.03 53 1011.0
20260507151517 15 248 12.9 24.1 0.03 0.03 0.03 55 1011.0
20260507150516 15 293 11.3 24.1 0.03 0.03 0.03 56 1011.2
20260507145517 16 180 11.3 24.1 0.00 0.00 0.00 54 1011.4
20260507144517 17 180 9.7 32.2 0.00 0.00 0.00 50 1011.6
20260507143517 17 180 12.9 27.4 0.00 0.00 0.00 48 1011.8
20260507142516 21 203 4.8 19.3 0.00 0.00 0.00 35 1011.8
20260507141517 21 158 1.6 8.0 0.00 0.00 0.00 34 1011.7
20260507140538 21 0.0 0.0 0.00 0.00 0.00 34 1012.0
20260507135558 21 0.0 3.2 0.00 0.00 0.00 35 1011.8
20260507134517 21 135 1.6 4.8 0.00 0.00 0.00 36 1011.8
20260507133517 20 158 3.2 9.7 0.00 0.00 0.00 36 1011.9
20260507132516 20 180 6.4 17.7 0.00 0.00 0.00 37 1011.9
20260507131516 20 135 6.4 17.7 0.00 0.00 0.00 36 1011.9
20260507130517 21 158 6.4 17.7 0.00 0.00 0.00 34 1012.1
20260507125517 21 90 8.0 22.5 0.00 0.00 0.00 38 1012.2
20260507124517 21 158 8.0 22.5 0.00 0.00 0.00 36 1012.2
20260507123517 20 90 4.8 16.1 0.00 0.00 0.00 37 1012.1
20260507122517 20 135 9.7 27.4 0.00 0.00 0.00 40 1012.1
20260507121517 20 113 9.7 20.9 0.00 0.00 0.00 39 1012.1
20260507120516 20 68 6.4 17.7 0.00 0.00 0.00 43 1012.3
20260507115537 20 90 6.4 17.7 0.00 0.00 0.00 41 1012.6
20260507114517 19 113 4.8 16.1 0.00 0.00 0.00 43 1012.9
20260507113517 18 68 4.8 14.5 0.00 0.00 0.00 45 1013.0
20260507112516 18 113 4.8 16.1 0.00 0.00 0.00 46 1013.3
20260507111517 18 90 6.4 16.1 0.00 0.00 0.00 45 1013.6
20260507110517 18 113 6.4 16.1 0.00 0.00 0.00 44 1013.6
20260507105537 18 113 3.2 9.7 0.00 0.00 0.00 44 1013.9
20260507104516 17 90 3.2 11.3 0.00 0.00 0.00 45 1014.1
20260507103516 17 113 4.8 12.9 0.00 0.00 0.00 46 1014.1
20260507102516 16 113 3.2 11.3 0.00 0.00 0.00 47 1014.1
20260507101517 16 113 8.0 17.7 0.00 0.00 0.00 46 1014.2
20260507100517 16 180 3.2 12.9 0.00 0.00 0.00 47 1014.2
20260507095536 17 90 3.2 11.3 0.00 0.00 0.00 44 1014.4
20260507094516 16 180 1.6 6.4 0.00 0.00 0.00 46 1014.4
20260507093517 15 113 1.6 4.8 0.00 0.00 0.00 47 1014.5
20260507092516 14 0 3.2 6.4 0.00 0.00 0.00 49 1014.6
20260507091516 13 45 3.2 9.7 0.00 0.00 0.00 50 1014.5
20260507090516 13 338 3.2 6.4 0.00 0.00 0.00 51 1014.7
20260507085516 13 338 3.2 6.4 0.00 0.00 0.00 51 1014.6
20260507084517 12 0.0 3.2 0.00 0.00 0.00 53 1014.8
20260507083537 12 45 3.2 6.4 0.00 0.00 0.00 54 1014.8
20260507082556 11 0 1.6 6.4 0.00 0.00 0.00 56 1014.8
20260507081516 11 45 3.2 4.8 0.00 0.00 0.00 57 1014.8
20260507080516 10 23 4.8 8.0 0.00 0.00 0.00 57 1014.8
20260507075517 10 23 3.2 6.4 0.00 0.00 0.00 57 1014.9
20260507074516 10 45 8.0 11.3 0.00 0.00 0.00 57 1014.9
20260507073516 10 68 8.0 9.7 0.00 0.00 0.00 56 1014.9
20260507072516 10 68 4.8 11.3 0.00 0.00 0.00 56 1015.0
20260507071516 10 45 4.8 8.0 0.00 0.00 0.00 55 1014.9
20260507070516 10 338 1.6 4.8 0.00 0.00 0.00 56 1014.9
20260507065516 10 45 3.2 4.8 0.00 0.00 0.00 56 1015.0
20260507064517 10 45 3.2 6.4 0.00 0.00 0.00 56 1014.9
20260507063516 10 338 4.8 9.7 0.00 0.00 0.00 57 1014.7
20260507062516 10 0 6.4 11.3 0.00 0.00 0.00 57 1014.7
20260507061537 10 0 4.8 8.0 0.00 0.00 0.00 58 1014.8
20260507060516 10 0 4.8 8.0 0.00 0.00 0.00 58 1014.7
20260507055517 10 338 4.8 6.4 0.00 0.00 0.00 58 1014.6